When you browse on this site, cookies collect data to enhance your experience and personalize the content and advertising you see.
Visit our Privacy Policy to learn more. By continuing to use the site, you agree to this use of cookies and data.
  • In Österreich
  • Länderverzeichnis
  • Für 7 Tage
  • Wassertemperatur
  • Satellitenkarten
  • Wetterkarte
  • News
  • Widgets
  • user-avatar
    Anmelden

    Stündliche Wetter Syracuse

    Heute, 19 Februar, Dienstag

    Zeit Temperatur Niederschläge Wind Luftdruck Luftfeuchtigkeit
    00:00 -10°C° 0.1 mm 3 m/S 759 mmHg 90%
    01:00 -10°C° 0 mm 3 m/S 760 mmHg 90%
    02:00 -10°C° 0 mm 2 m/S 760 mmHg 91%
    03:00 -10°C° 0 mm 2 m/S 761 mmHg 91%
    04:00 -12°C° 0 mm 2 m/S 761 mmHg 92%
    05:00 -12°C° 0 mm 2 m/S 762 mmHg 92%
    06:00 -11°C° 0 mm 1 m/S 762 mmHg 93%
    07:00 -13°C° 0 mm 1 m/S 763 mmHg 92%
    08:00 -11°C° 0 mm 1 m/S 764 mmHg 88%
    09:00 -12°C° 0 mm 2 m/S 764 mmHg 84%
    10:00 -12°C° 0 mm 3 m/S 764 mmHg 81%
    11:00 -10°C° 0 mm 3 m/S 764 mmHg 80%
    12:00 -9°C° 0 mm 3 m/S 764 mmHg 79%
    13:00 -9°C° 0 mm 4 m/S 764 mmHg 78%
    14:00 -9°C° 0 mm 4 m/S 764 mmHg 79%
    15:00 -9°C° 0 mm 4 m/S 764 mmHg 79%
    16:00 -8°C° 0 mm 3 m/S 764 mmHg 80%
    17:00 -8°C° 0 mm 3 m/S 764 mmHg 83%
    18:00 -8°C° 0 mm 2 m/S 763 mmHg 87%
    19:00 -8°C° 0 mm 1 m/S 763 mmHg 90%
    20:00 -10°C° 0 mm 2 m/S 764 mmHg 90%
    21:00 -10°C° 0 mm 2 m/S 764 mmHg 91%
    22:00 -12°C° 0 mm 2 m/S 764 mmHg 92%
    23:00 -12°C° 0 mm 2 m/S 764 mmHg 91%

    Morgen, 20 Februar, Mittwoch

    Zeit Temperatur Niederschläge Wind Luftdruck Luftfeuchtigkeit
    00:00 -12°C° 0 mm 2 m/S 764 mmHg 91%
    01:00 -12°C° 0 mm 2 m/S 764 mmHg 90%
    02:00 -12°C° 0 mm 2 m/S 763 mmHg 89%
    03:00 -12°C° 0 mm 2 m/S 763 mmHg 89%
    04:00 -12°C° 0 mm 2 m/S 763 mmHg 88%
    05:00 -12°C° 0 mm 2 m/S 763 mmHg 87%
    06:00 -10°C° 0 mm 2 m/S 762 mmHg 86%
    07:00 -10°C° 0 mm 2 m/S 762 mmHg 86%
    08:00 -8°C° 0 mm 2 m/S 761 mmHg 83%
    09:00 -7°C° 0 mm 2 m/S 761 mmHg 80%
    10:00 -6°C° 0 mm 3 m/S 761 mmHg 78%
    11:00 -5°C° 0 mm 3 m/S 760 mmHg 76%
    12:00 -4°C° 0 mm 4 m/S 759 mmHg 75%
    13:00 -3°C° 0 mm 4 m/S 758 mmHg 73%
    14:00 -3°C° 0.2 mm 4 m/S 757 mmHg 77%
    15:00 -3°C° 0.2 mm 4 m/S 756 mmHg 81%
    16:00 -3°C° 0.2 mm 4 m/S 755 mmHg 85%
    17:00 -4°C° 0.1 mm 5 m/S 754 mmHg 85%
    18:00 -4°C° 0.1 mm 5 m/S 753 mmHg 85%
    19:00 -4°C° 0.1 mm 5 m/S 752 mmHg 85%
    20:00 -3°C° 0.5 mm 6 m/S 751 mmHg 86%
    21:00 -2°C° 0.5 mm 6 m/S 750 mmHg 88%
    22:00 -2°C° 0.5 mm 6 m/S 749 mmHg 90%
    23:00 -1°C° 1.4 mm 6 m/S 747 mmHg 91%

    übermorgen, 21 Februar, Donnerstag

    Zeit Temperatur Niederschläge Wind Luftdruck Luftfeuchtigkeit
    00:00 +1°C° 1.4 mm 6 m/S 746 mmHg 91%
    01:00 0°C° 1.4 mm 7 m/S 744 mmHg 92%
    02:00 +2°C° 1 mm 6 m/S 744 mmHg 93%
    03:00 +2°C° 1 mm 6 m/S 743 mmHg 93%
    04:00 +3°C° 1 mm 6 m/S 742 mmHg 94%
    05:00 +3°C° 0 mm 5 m/S 742 mmHg 95%
    06:00 +2°C° 0 mm 5 m/S 742 mmHg 95%
    07:00 +2°C° 0 mm 5 m/S 743 mmHg 95%
    08:00 +2°C° 0 mm 5 m/S 743 mmHg 92%
    09:00 +1°C° 0 mm 6 m/S 744 mmHg 89%
    10:00 +1°C° 0 mm 6 m/S 745 mmHg 87%
    11:00 +1°C° 0 mm 6 m/S 745 mmHg 84%
    12:00 0°C° 0 mm 7 m/S 746 mmHg 81%
    13:00 0°C° 0 mm 7 m/S 746 mmHg 78%
    14:00 0°C° 0 mm 7 m/S 746 mmHg 77%
    15:00 0°C° 0 mm 7 m/S 747 mmHg 77%
    16:00 0°C° 0 mm 7 m/S 747 mmHg 77%
    17:00 -1°C° 0 mm 6 m/S 748 mmHg 78%
    18:00 -1°C° 0 mm 6 m/S 749 mmHg 80%
    19:00 -1°C° 0 mm 5 m/S 749 mmHg 82%
    20:00 -1°C° 0.1 mm 5 m/S 750 mmHg 84%
    21:00 -1°C° 0.1 mm 5 m/S 751 mmHg 85%
    22:00 -1°C° 0.1 mm 5 m/S 751 mmHg 87%
    23:00 -2°C° 0.1 mm 5 m/S 752 mmHg 86%

    22 Februar, Freitag

    Zeit Temperatur Niederschläge Wind Luftdruck Luftfeuchtigkeit
    00:00 -2°C° 0.1 mm 5 m/S 753 mmHg 86%
    01:00 -2°C° 0.1 mm 4 m/S 753 mmHg 86%
    02:00 -2°C° 0 mm 4 m/S 754 mmHg 87%
    03:00 -3°C° 0 mm 4 m/S 754 mmHg 87%
    04:00 -2°C° 0 mm 3 m/S 755 mmHg 87%
    05:00 -2°C° 0 mm 3 m/S 755 mmHg 88%
    06:00 -2°C° 0 mm 3 m/S 756 mmHg 89%
    07:00 -4°C° 0 mm 3 m/S 756 mmHg 91%
    08:00 -2°C° 0 mm 3 m/S 757 mmHg 86%
    09:00 -2°C° 0 mm 4 m/S 758 mmHg 82%
    10:00 -1°C° 0 mm 5 m/S 758 mmHg 78%
    11:00 -1°C° 0 mm 4 m/S 758 mmHg 75%
    12:00 0°C° 0 mm 4 m/S 758 mmHg 72%
    13:00 0°C° 0 mm 4 m/S 759 mmHg 69%
    14:00 0°C° 0 mm 4 m/S 759 mmHg 70%
    15:00 0°C° 0 mm 4 m/S 759 mmHg 71%
    16:00 +1°C° 0 mm 3 m/S 759 mmHg 71%
    17:00 +1°C° 0 mm 2 m/S 759 mmHg 77%
    18:00 +1°C° 0 mm 1 m/S 759 mmHg 82%
    19:00 -1°C° 0 mm 1 m/S 760 mmHg 87%
    20:00 -1°C° 0 mm 1 m/S 760 mmHg 87%
    21:00 -1°C° 0 mm 1 m/S 760 mmHg 87%
    22:00 -1°C° 0 mm 1 m/S 760 mmHg 88%
    23:00 -1°C° 0 mm 1 m/S 760 mmHg 87%

    23 Februar, Samstag

    Zeit Temperatur Niederschläge Wind Luftdruck Luftfeuchtigkeit
    00:00 -1°C° 0 mm 1 m/S 760 mmHg 87%
    01:00 -2°C° 0 mm 0 m/S 759 mmHg 87%
    02:00 -1°C° 0 mm 1 m/S 759 mmHg 87%
    03:00 -1°C° 0 mm 1 m/S 759 mmHg 86%
    04:00 -1°C° 0 mm 1 m/S 759 mmHg 86%
    05:00 -1°C° 0 mm 1 m/S 759 mmHg 86%
    06:00 -3°C° 0 mm 2 m/S 758 mmHg 85%
    07:00 -3°C° 0 mm 2 m/S 758 mmHg 85%
    08:00 -1°C° 0 mm 2 m/S 758 mmHg 79%
    09:00 +1°C° 0 mm 2 m/S 758 mmHg 74%
    10:00 +2°C° 0 mm 3 m/S 757 mmHg 69%
    11:00 +3°C° 0 mm 3 m/S 757 mmHg 66%
    12:00 +4°C° 0 mm 3 m/S 756 mmHg 64%
    13:00 +5°C° 0 mm 4 m/S 755 mmHg 61%
    14:00 +5°C° 0 mm 4 m/S 754 mmHg 64%
    15:00 +5°C° 0 mm 3 m/S 753 mmHg 66%
    16:00 +5°C° 0 mm 3 m/S 752 mmHg 68%
    17:00 +4°C° 0 mm 3 m/S 752 mmHg 72%
    18:00 +3°C° 0 mm 3 m/S 752 mmHg 76%
    19:00 +2°C° 0 mm 3 m/S 752 mmHg 80%
    20:00 +1°C° 0 mm 4 m/S 751 mmHg 82%
    21:00 +1°C° 0 mm 4 m/S 750 mmHg 84%
    22:00 +1°C° 0 mm 4 m/S 749 mmHg 85%
    23:00 +1°C° 0.1 mm 4 m/S 748 mmHg 86%

    24 Februar, Sonntag

    Zeit Temperatur Niederschläge Wind Luftdruck Luftfeuchtigkeit
    00:00 +1°C° 0.1 mm 4 m/S 747 mmHg 87%
    01:00 +1°C° 0.1 mm 5 m/S 746 mmHg 88%
    02:00 +2°C° 1.4 mm 5 m/S 744 mmHg 89%
    03:00 +2°C° 1.4 mm 5 m/S 743 mmHg 89%
    04:00 +2°C° 1.4 mm 5 m/S 742 mmHg 90%
    05:00 +3°C° 0.2 mm 5 m/S 741 mmHg 89%
    06:00 +3°C° 0.2 mm 6 m/S 739 mmHg 89%
    07:00 +4°C° 0.2 mm 6 m/S 738 mmHg 89%
    08:00 +5°C° 1 mm 6 m/S 737 mmHg 88%
    09:00 +8°C° 1 mm 7 m/S 735 mmHg 86%
    10:00 +10°C° 1 mm 7 m/S 734 mmHg 85%
    11:00 +10°C° 0.2 mm 7 m/S 733 mmHg 83%
    12:00 +11°C° 0.2 mm 6 m/S 733 mmHg 81%
    13:00 +11°C° 0.2 mm 6 m/S 732 mmHg 79%
    14:00 +10°C° 0.2 mm 6 m/S 732 mmHg 77%
    15:00 +9°C° 0.2 mm 5 m/S 731 mmHg 76%
    16:00 +8°C° 0.2 mm 5 m/S 731 mmHg 75%
    17:00 +7°C° 0.5 mm 5 m/S 731 mmHg 77%
    18:00 +7°C° 0.5 mm 5 m/S 731 mmHg 79%
    19:00 +5°C° 0.5 mm 6 m/S 731 mmHg 81%
    20:00 +4°C° 0.5 mm 7 m/S 731 mmHg 78%
    21:00 +4°C° 0.5 mm 7 m/S 730 mmHg 76%
    22:00 +2°C° 0.5 mm 8 m/S 730 mmHg 73%
    23:00 +1°C° 0.8 mm 9 m/S 730 mmHg 74%
    Mehr zeigen